Left ArrowRight Arrow

44.8408, -93.29828

Hourly Observations for May 25, 2024

Temp ( °F °C ) Dew Point ( °F °C ) Humidity (%) Winds ( mph kmh ) Pressure ( in mb ) Visibility ( mi km ) Precip ( " mm )
12:53 am 00:53 Clear 50 10 40 4.4 68 68 WSW 8 13 29.76 1008 10 16 0.00 0.00
1:53 am 01:53 Clear 49 9.4 40 4.4 71 71 SW 5 7 29.75 1008 10 16 0.00 0.00
2:53 am 02:53 Clear 49 9.4 40 4.4 71 71 SSW 8 13 29.75 1008 10 16 0.00 0.00
3:53 am 03:53 Clear 49 9.4 41 5 74 74 SW 9 15 29.75 1008 10 16 0.00 0.00
4:53 am 04:53 Clear 49 9.4 42 5.6 77 77 SSW 8 13 29.76 1008 10 16 0.00 0.00
5:53 am 05:53 Sunny 50 10 43 6.1 77 77 SW 12 19 29.77 1008 10 16 0.00 0.00
6:53 am 06:53 Sunny 52 11.1 43 6.1 71 71 SW 10 17 29.79 1009 10 16 0.00 0.00
7:53 am 07:53 Mostly Sunny 56 13.3 44 6.7 64 64 SW 9 15 29.78 1009 10 16 0.00 0.00
8:53 am 08:53 Mostly Sunny 60 15.6 45 7.2 57 57 SSW 9 15 29.79 1009 10 16 0.00 0.00
9:53 am 09:53 Mostly Sunny 64 17.8 45 7.2 50 50 SW 9 15 29.78 1009 10 16 0.00 0.00
10:53 am 10:53 Sunny 67 19.4 45 7.2 45 45 SSW 12 19 29.77 1008 10 16 0.00 0.00
11:53 am 11:53 Partly Cloudy 70 21.1 45 7.2 41 41 SW 16 26 29.77 1008 10 16 0.00 0.00
12:53 pm 12:53 Mostly Cloudy 72 22.2 46 7.8 40 40 SSW 17 28 29.76 1008 10 16 0.00 0.00
1:53 pm 13:53 Mostly Cloudy 75 23.9 47 8.3 37 37 SW 21 33 29.75 1008 10 16 0.00 0.00
2:53 pm 14:53 Mostly Cloudy 73 22.8 45 7.2 37 37 WSW 18 30 29.74 1007 10 16 0.00 0.00
3:53 pm 15:53 Cloudy 73 22.8 47 8.3 39 39 WSW 13 20 29.74 1007 10 16 0.00 0.00
4:53 pm 16:53 Cloudy 72 22.2 48 8.9 43 43 WSW 21 33 29.75 1008 10 16 0.00 0.00
5:53 pm 17:53 Cloudy 69 20.6 48 8.9 47 47 SSW 12 19 29.73 1007 10 16 0.01 0.13
6:53 pm 18:53 Mostly Cloudy 68 20 49 9.4 50 50 SSW 8 13 29.73 1007 10 16 0.00 0.00
7:08 pm 19:08 Mostly Cloudy 68 20 49 9.4 50 50 SSW 8 13 29.71 1006 10 16 0.00 0.00
7:23 pm 19:23 Mostly Cloudy 68 20 49 9.4 50 50 S 8 13 29.71 1006 10 16 0.00 0.00
7:53 pm 19:53 Mostly Cloudy 69 20.6 48 8.9 47 47 S 8 13 29.73 1007 10 16 0.00 0.00
8:53 pm 20:53 Mostly Cloudy 67 19.4 49 9.4 52 52 S 5 7 29.73 1007 10 16 0.00 0.00
9:53 pm 21:53 Mostly Cloudy 66 18.9 50 10 56 56 SSE 5 7 29.75 1007 10 16 0.00 0.00
10:53 pm 22:53 Partly Cloudy 64 17.8 50 10 60 60 E 5 7 29.73 1007 10 16 0.00 0.00
11:53 pm 23:53 Partly Cloudy 64 17.8 51 10.6 63 63 SE 8 13 29.73 1007 10 16 0.00 0.00

Powered by Vaisala Xweather